This is the latest recevied weather packets stored in our database for station/object KD0MAC. If no packets are shown the sender has not sent any weather packets the latest 10 day(s).
| Time | Temp. | Humidity | Pressure | Rain* | Wind** | Luminosity | Snow |
|---|---|---|---|---|---|---|---|
| 1777051940 | 20.56° C | 30% | 1012.2 hPa | 0 mm | - | 548 W/m² | - |
| 1777051641 | 20.56° C | 30% | 1012.2 hPa | 0 mm | - | 544 W/m² | - |
| 1777051341 | 20.56° C | 30% | 1012.2 hPa | 0 mm | - | 542 W/m² | - |
| 1777051040 | 20° C | 31% | 1012.5 hPa | 0 mm | - | 532 W/m² | - |
| 1777050740 | 19.44° C | 32% | 1012.5 hPa | 0 mm | - | 526 W/m² | - |
| 1777050441 | 19.44° C | 31% | 1012.5 hPa | 0 mm | - | 522 W/m² | - |
| 1777050140 | 18.89° C | 33% | 1012.5 hPa | 0 mm | - | 513 W/m² | - |
| 1777049841 | 18.89° C | 32% | 1012.5 hPa | 0 mm | - | 526 W/m² | - |
| 1777049541 | 18.33° C | 33% | 1012.5 hPa | 0 mm | - | 528 W/m² | - |
| 1777049241 | 18.33° C | 33% | 1012.5 hPa | 0 mm | - | 520 W/m² | - |
| 1777048941 | 18.33° C | 33% | 1012.5 hPa | 0 mm | - | 512 W/m² | - |
| 1777048641 | 18.33° C | 33% | 1012.5 hPa | 0 mm | - | 505 W/m² | - |
| 1777048341 | 18.33° C | 34% | 1012.5 hPa | 0 mm | - | 494 W/m² | - |
| 1777048040 | 17.78° C | 35% | 1012.5 hPa | 0 mm | - | 485 W/m² | - |
| 1777047740 | 17.22° C | 35% | 1012.5 hPa | 0 mm | - | 474 W/m² | - |
| 1777047441 | 17.22° C | 35% | 1012.5 hPa | 0 mm | - | 466 W/m² | - |
| 1777047141 | 16.67° C | 36% | 1012.5 hPa | 0 mm | - | 454 W/m² | - |
| 1777046840 | 16.11° C | 36% | 1012.5 hPa | 0 mm | - | 445 W/m² | - |
| 1777046541 | 16.11° C | 38% | 1012.5 hPa | 0 mm | - | 434 W/m² | - |
| 1777046240 | 15.56° C | 38% | 1012.5 hPa | 0 mm | - | 422 W/m² | - |
| 1777045943 | 15.56° C | 38% | 1012.5 hPa | 0 mm | - | 412 W/m² | - |
| 1777045641 | 15.56° C | 40% | 1012.5 hPa | 0 mm | - | 402 W/m² | - |
| 1777045341 | 15° C | 40% | 1012.5 hPa | 0 mm | - | 394 W/m² | - |
| 1777045040 | 15° C | 40% | 1012.5 hPa | 0 mm | - | 379 W/m² | - |
| 1777044741 | 14.44° C | 41% | 1012.5 hPa | 0 mm | - | 369 W/m² | - |
* Rain latest hour (hover to see other rain measurements)
** Current wind speed in m/s (hover to see current wind gust speed)